STARLINK-34829

Last updated on Tue Sep 16 2025 00:02:08 GMT+0000 (Coordinated Universal Time)

1 65470U 25195N 25257.83801459 -.00719310 00000+0 -45640-2 0 9996 2 65470 53.1560 1.1526 0002796 13.3401 346.7694 15.77721208 2983
UTC large
Height (km)
Speed (km/s)
/
Latitude / Longitude
Inclination (degrees)
Orbital Period (minutes)
Azimuth
Elevation
Range (km)
Doppler Factor

Next 0 passes for location: London (51.5072 / 0.1276)

Sorry there are no passes over London.